Theta_e
313 317 319 319 319 319 320 320 320 320 320 319 319 318 316 314 312 311 309 309 308 308
310 312 314 314 314 313 313 312 315 315 315 314 314 313 313 311 310 309 308 307 307 307
304 305 306 306 305 304 305 305 305 305 305 305 304 304 304 303 304 302 303 304 304 305
300 300 299 299 299 299 298 298 297 297 297 297 296 297 297 297 297 297 297 297 296 297
294 294 293 292 293 293 293 293 293 293 293 293 293 293 292 291 292 291 291 292 292 292
290 290 290 290 291 291 291 290 290 290 290 289 289 288 288 289 289 289 289 289 289 289
289 289 289 289 289 288 288 288 288 287 286 286 287 286 285 286 287 287 288 288 288 288
288 288 287 287 287 286 285 285 285 285 285 285 286 286 286 285 285 285 285 285 286 286
286 285 285 285 285 285 284 284 284 284 284 284 284 289 291 289 284 284 284 283 284 284
284 283 283 284 283 283 283 283 283 283 283 283 283 288 289 289 284 283 283 283 283 285
282 282 282 282 282 282 282 281 282 281 281 280 282 287 288 288 283 282 283 284 284 284
280 279 280 279 280 281 279 279 278 280 277 276 279 286 287 286 285 284 284 284 285 284
280 278 277 279 279 279 277 279 279 279 277 276 276 284 286 286 284 283 283 284 284 284
277 277 278 277 277 275 274 275 272 275 276 276 275 278 286 287 284 284 283 283 283 284
Wind_Speed
5 4 4 4 4 3 2 3 2 3 2 3 2 2 3 2 3 3 3 4 4 3
6 7 8 8 7 4 4 4 5 6 5 5 5 5 4 3 2 1 1 3 4 3
7 9 10 9 8 7 6 7 6 6 6 6 6 6 5 3 2 2 2 2 3 3
8 9 9 8 7 7 7 6 7 6 7 6 6 6 6 6 6 5 5 4 4 5
8 7 9 8 7 6 7 7 7 7 7 7 7 7 6 5 5 5 5 5 5 5
7 7 8 7 7 7 7 7 7 7 7 6 6 6 6 5 5 5 4 4 4 5
7 6 6 7 7 7 6 6 6 6 6 6 5 5 4 5 5 4 4 5 5 5
6 6 6 7 6 6 7 6 6 6 6 5 5 3 5 5 5 5 6 6 6 5
6 6 6 6 6 6 6 6 5 5 5 6 3 8 8 6 4 5 5 6 5 4
6 6 6 5 6 5 5 4 5 5 5 5 5 10 10 8 3 4 5 5 5 8
6 5 5 5 5 4 4 4 4 3 5 4 3 10 10 10 4 4 5 6 9 9
4 4 4 4 4 3 2 1 1 1 3 3 4 11 11 10 7 8 9 7 8 6
4 4 3 2 1 1 1 1 1 3 3 4 4 9 12 10 4 7 8 5 4 9
4 3 3 2 2 2 2 3 3 3 4 5 3 5 9 12 5 5 6 6 6 6
Wind_Direction
103 126 96 91 107 71 91 94 99 151 165 166 174 177 166 172 199 204 226 233 224 229
70 83 90 78 73 76 71 69 67 67 71 67 66 68 68 68 60 139 236 257 259 254
76 79 79 78 79 72 64 67 68 61 59 58 52 46 50 37 23 25 6 332 309 299
67 74 80 81 75 77 74 69 69 69 66 58 52 37 45 37 24 18 356 345 335 317
70 70 78 75 70 67 73 62 67 65 65 55 50 46 45 37 22 17 0 348 348 326
65 68 75 72 66 61 65 60 59 63 63 61 57 49 35 29 18 3 344 341 335 322
76 72 73 74 68 65 62 66 59 54 61 55 57 53 29 12 4 346 330 331 321 306
84 79 76 72 71 69 60 57 58 55 43 39 41 15 6 3 352 337 326 316 307 300
88 80 73 70 66 64 57 49 45 37 32 21 7 354 355 350 326 305 293 303 305 291
96 84 73 75 71 64 56 43 35 25 17 5 354 354 347 340 308 307 309 316 321 332
88 84 75 72 60 50 28 29 12 359 353 334 332 351 349 347 340 333 332 334 334 327
95 90 76 61 44 29 17 327 333 344 317 312 309 351 357 355 349 341 334 327 325 317
85 85 86 46 353 303 315 313 326 308 284 295 308 342 357 356 339 327 321 305 274 304
86 95 81 61 23 352 343 348 329 328 328 319 284 297 330 337 325 308 306 300 312 309